Temperature
25 22 21 22 22 23 24 24 24 26 28 27 26 25 25 25 25 24 23 23 22 22 23 22 22 21 21 21 20 20 20 20 19 19 19 19 18 18 18 18 18 18 18 18
23 22 23 24 25 25 25 24 25 26 27 27 25 25 24 24 24 24 23 22 22 22 21 22 21 21 21 21 20 20 20 19 19 19 19 19 18 18 18 18 18 18 18 18
22 23 25 26 25 25 25 25 25 26 27 26 26 24 23 23 24 24 23 23 22 22 21 21 21 21 21 20 20 20 20 19 19 18 18 18 18 18 18 18 18 18 18 18
23 25 26 26 25 26 24 26 27 27 25 23 25 22 22 22 22 22 22 22 22 22 22 21 21 21 20 20 20 20 19 19 19 18 18 18 18 18 18 18 18 18 18 18
23 25 25 25 26 27 25 27 27 27 25 23 23 22 21 21 22 22 21 22 22 22 22 22 21 21 20 20 20 19 19 19 19 18 18 18 18 18 18 18 18 18 18 18
24 26 26 26 27 27 27 27 25 22 21 22 22 22 21 20 21 21 21 22 21 22 22 22 21 21 20 20 19 19 19 19 18 18 18 18 18 18 18 17 17 17 17 17
24 25 26 27 26 27 26 23 21 22 20 20 21 21 20 21 21 21 21 21 21 21 21 21 21 21 20 19 19 19 18 18 18 18 18 18 17 18 18 17 17 17 17 17
22 23 25 26 26 25 25 22 21 21 21 20 21 21 20 21 21 22 22 22 21 21 21 21 21 21 20 19 19 19 18 18 18 18 17 17 17 17 17 17 17 17 18 18
22 23 26 27 28 26 25 23 21 20 21 20 20 20 21 21 21 21 21 21 21 20 21 21 21 21 20 20 19 19 19 18 18 17 17 17 17 17 17 17 17 17 17 17
22 23 25 27 27 26 25 24 20 20 21 21 21 21 20 20 20 20 20 20 21 20 20 21 21 21 20 20 19 19 19 18 18 18 17 17 17 17 17 17 17 17 17 17
23 22 23 25 25 24 24 24 21 19 19 20 20 20 21 20 20 20 20 21 21 20 21 21 21 21 20 20 19 19 18 18 18 17 17 17 17 17 17 17 17 17 17 17
22 20 21 23 24 25 24 23 21 21 20 19 19 20 22 20 20 20 20 21 21 21 21 21 21 21 20 20 19 19 18 18 18 18 18 17 17 17 17 17 17 17 17 17
22 20 20 21 22 23 24 23 22 19 19 19 19 20 21 20 20 20 21 21 21 21 21 21 20 20 20 20 19 19 18 18 18 18 17 17 17 17 17 17 17 17 17 17
22 19 20 21 21 22 23 24 23 20 19 20 20 20 20 20 20 20 21 21 21 21 21 21 20 20 20 20 19 19 18 18 18 18 17 17 17 17 17 17 17 17 17 17
20 20 21 21 23 23 24 24 24 22 21 20 21 20 20 20 20 20 20 20 20 21 21 20 20 20 20 19 19 19 18 18 18 18 17 17 17 17 17 17 17 17 17 17
18 20 20 21 23 23 23 23 23 23 22 21 21 20 19 19 19 19 20 19 19 20 20 20 20 20 20 19 19 19 18 18 18 18 17 17 17 17 17 17 17 17 17 17
17 18 19 19 21 22 21 21 22 21 21 21 20 19 19 18 18 18 18 19 19 19 20 20 20 20 20 20 19 19 19 18 18 18 17 17 17 17 17 17 17 17 17 16
17 17 16 18 20 20 20 21 21 21 20 20 19 19 18 18 18 18 18 18 19 19 19 19 19 19 19 19 19 19 18 18 18 18 17 17 17 17 17 17 17 16 16 16
16 17 16 16 18 19 20 20 20 19 18 18 18 18 18 17 17 17 18 18 18 18 19 19 19 19 19 19 18 18 18 18 18 17 17 17 17 17 17 16 16 16 16 16
16 15 16 16 18 18 18 19 20 19 17 17 17 17 17 17 16 16 17 17 18 18 18 19 19 19 19 18 18 18 18 17 17 17 17 17 17 17 16 16 16 16 16 16
16 15 16 16 17 17 18 19 19 18 17 17 17 17 17 16 16 16 16 17 17 17 17 18 18 18 18 18 18 17 17 17 17 17 16 16 16 16 16 16 16 15 15 15
15 15 15 15 16 16 16 17 16 15 16 16 16 16 16 16 15 15 16 16 16 16 16 17 17 17 17 17 17 17 17 17 17 16 16 16 16 15 15 15 15 15 15 15
14 14 13 14 14 15 15 15 16 16 16 16 16 16 15 15 14 15 15 15 15 15 15 15 16 16 16 16 16 16 16 16 16 16 16 15 15 15 15 15 15 14 14 14
14 14 13 13 14 14 14 15 15 16 15 16 15 15 15 14 14 14 14 14 14 14 14 14 15 15 15 15 15 15 15 15 15 15 15 15 15 14 14 14 14 14 14 14
14 13 13 13 13 14 14 14 14 15 15 15 15 14 14 14 13 13 13 13 13 13 13 13 14 13 14 14 14 14 14 15 15 14 14 14 14 14 14 13 13 13 13 13
13 13 13 13 13 12 12 13 14 14 14 14 14 13 13 13 13 13 12 12 12 12 12 13 13 13 13 13 13 13 13 14 14 14 14 13 13 13 13 13 12 12 12 12
Wind_Speed
5 4 7 10 10 9 7 9 12 13 10 4 4 5 6 5 8 10 10 11 11 10 8 8 9 9 10 10 11 12 13 12 10 8 8 7 7 7 6 6 10 12 11 11
3 9 13 10 9 9 10 11 12 11 7 1 1 3 2 3 7 8 10 11 11 9 8 10 10 11 11 12 12 13 13 12 10 8 6 5 5 5 6 6 7 10 11 11
11 9 9 11 12 12 12 10 9 9 7 3 2 3 3 2 1 3 5 8 10 13 14 13 11 10 11 12 13 13 12 12 10 9 6 5 4 3 4 5 6 7 10 10
9 12 11 11 12 12 11 11 9 8 3 4 1 2 5 3 2 2 3 5 8 10 11 11 11 10 11 11 10 10 11 11 11 11 10 10 8 7 6 6 6 6 8 9
8 8 10 13 15 12 11 11 7 5 1 2 4 3 5 3 4 5 3 3 5 7 12 13 12 11 9 10 10 10 10 10 10 11 12 11 8 6 5 6 7 6 5 7
11 9 8 12 12 10 10 5 4 4 5 2 4 2 4 3 5 5 4 2 3 6 9 11 10 9 7 8 9 9 10 9 10 11 11 11 11 10 9 8 8 6 5 5
9 11 10 9 9 8 3 3 3 5 4 4 4 2 5 7 6 4 3 4 4 6 8 10 10 10 10 10 10 10 10 9 10 11 11 11 11 11 11 10 9 8 6 5
6 9 8 7 10 9 6 10 8 6 5 4 3 2 6 8 5 2 2 3 4 6 8 11 12 12 11 11 10 10 10 9 10 11 10 9 10 8 8 9 9 9 8 8
8 8 7 7 6 9 5 5 10 8 4 1 3 3 5 4 3 2 1 1 5 7 8 10 11 11 11 11 10 10 10 8 9 10 10 9 9 9 9 8 8 7 7 7
9 5 8 6 2 2 8 7 6 6 5 2 3 3 5 6 5 2 0 1 4 5 7 9 10 10 10 9 8 8 8 9 8 9 9 10 9 9 8 8 9 9 8 8
8 6 7 4 2 4 2 4 5 5 6 6 3 6 6 8 7 5 3 3 3 4 6 7 8 9 9 8 8 7 7 7 7 8 8 8 9 8 8 8 9 8 8 8
6 6 4 5 4 3 6 6 7 5 4 5 5 6 5 7 7 6 4 3 3 6 7 7 9 9 8 8 8 7 7 7 7 8 8 8 8 8 8 8 7 7 8 8
5 6 2 6 7 4 2 2 4 6 5 4 4 5 2 2 4 5 5 3 2 4 7 8 9 9 9 8 8 7 7 7 6 6 7 8 8 8 8 8 7 7 8 8
5 5 7 8 7 3 1 1 3 6 4 3 5 6 3 4 3 2 3 4 4 6 8 9 9 9 9 9 8 7 6 6 7 6 7 7 8 8 8 7 6 7 7 8
5 4 3 3 3 2 1 1 0 3 5 6 6 7 6 5 4 3 4 6 6 6 7 9 10 10 9 9 8 7 7 6 7 7 6 6 6 6 6 6 6 6 6 7
5 3 3 3 2 3 3 3 3 2 2 3 5 2 1 2 4 3 3 5 5 6 6 8 9 9 10 10 10 8 8 7 7 7 7 6 6 6 6 6 6 6 5 5
3 4 3 1 3 4 2 2 3 3 3 3 3 2 3 4 4 2 3 4 4 3 4 5 8 9 8 9 9 9 8 8 8 7 7 6 6 6 5 6 6 6 5 5
4 3 3 2 4 1 4 2 6 8 7 6 5 5 6 6 5 5 5 5 4 4 3 3 4 6 6 7 7 8 7 8 8 7 6 6 7 6 5 5 6 5 5 5
4 5 4 4 3 2 2 3 1 5 5 6 7 6 6 6 6 6 6 5 4 2 2 2 2 4 6 7 7 8 7 7 7 7 6 6 7 7 6 6 5 5 5 4
5 5 5 4 3 4 3 5 2 7 3 3 4 5 3 4 3 0 3 6 6 5 3 3 4 6 7 6 7 8 7 7 7 6 6 5 5 6 6 6 5 4 5 4
4 4 4 3 3 2 4 6 3 5 4 1 1 3 3 3 3 3 4 6 6 6 5 5 6 6 5 5 8 9 7 6 5 6 6 6 5 6 6 6 5 5 6 5
2 3 2 3 3 4 5 4 3 3 2 2 2 3 5 6 7 6 6 7 7 7 7 7 8 7 6 6 9 10 7 5 6 7 8 7 6 5 5 6 6 6 7 7
1 3 3 3 3 1 2 4 2 3 4 3 3 5 7 7 6 6 7 7 7 7 8 8 10 11 9 8 9 10 7 7 8 9 8 7 7 7 7 7 7 6 6 6
1 1 3 2 2 2 4 6 5 5 5 4 5 6 8 8 7 8 7 8 8 8 8 9 11 12 10 9 10 9 8 8 10 10 8 7 8 8 8 6 6 6 5 6
1 1 2 2 1 3 6 6 6 7 8 8 7 7 7 10 10 9 9 9 9 9 9 10 11 11 11 10 11 10 9 10 11 10 9 9 9 9 9 9 7 7 5 4
1 2 3 3 3 2 1 3 6 8 8 8 9 9 9 9 11 11 10 9 10 10 10 11 12 12 11 11 11 10 9 9 10 9 8 7 7 7 7 8 8 12 10 11
Wind_Direction
220 172 222 227 216 217 249 274 281 280 284 277 213 208 229 194 171 167 167 169 171 174 175 166 170 171 163 165 166 167 165 165 159 158 161 160 169 171 167 170 173 173 173 167
252 241 231 229 240 246 256 266 276 286 292 326 197 243 256 190 183 174 167 167 166 161 165 172 170 170 171 172 170 166 166 164 164 168 166 160 159 169 168 171 177 179 175 169
215 240 227 228 243 251 259 249 254 265 298 337 116 339 307 297 170 167 163 164 170 172 173 172 169 170 168 171 172 171 166 165 166 161 147 143 135 134 158 174 180 184 177 171
240 245 249 244 244 235 257 252 248 264 286 291 136 215 288 282 297 205 176 177 182 175 172 170 166 164 175 177 170 163 164 168 170 165 166 169 173 177 183 180 178 178 177 172
240 229 228 238 242 235 237 251 254 260 233 354 2 121 283 325 304 289 262 218 197 181 174 172 172 171 180 177 170 169 167 171 173 174 176 177 178 177 166 167 170 176 177 174
249 259 232 230 244 236 236 263 338 30 69 10 280 157 273 256 245 267 282 262 206 184 181 170 165 162 175 179 172 168 172 178 179 178 180 180 176 171 170 175 179 181 178 180
276 274 257 239 247 264 226 122 23 350 4 259 276 140 249 260 249 238 258 263 218 181 174 167 164 169 178 180 177 174 178 183 182 181 183 182 179 177 179 180 184 181 180 187
233 271 256 228 207 215 216 153 164 197 221 262 319 221 255 265 261 253 247 225 199 182 176 174 174 175 180 180 177 178 182 186 184 183 184 182 179 182 184 183 183 185 188 190
206 247 265 243 209 181 192 184 174 150 167 155 278 277 295 303 323 331 279 169 192 185 178 179 176 175 177 177 178 179 180 182 184 184 181 180 182 184 185 183 182 183 185 190
186 248 286 273 247 223 174 164 106 123 157 226 274 247 236 259 259 265 247 199 188 181 178 178 172 173 175 175 172 174 178 182 183 182 183 185 186 187 185 180 184 186 189 191
172 196 292 346 170 207 152 125 117 129 147 158 222 262 222 208 211 215 229 217 184 182 181 178 170 170 167 164 166 172 173 174 178 184 185 182 184 185 181 183 186 186 188 186
174 156 242 269 270 186 153 159 140 148 198 162 168 259 257 197 206 206 212 194 185 185 174 171 165 160 162 166 169 174 177 178 183 184 182 182 181 177 179 184 184 181 184 187
146 131 165 325 341 3 90 123 135 134 129 151 158 252 298 187 208 204 187 180 176 170 165 158 157 160 164 169 173 178 182 180 175 174 177 180 181 178 182 185 184 184 183 182
118 115 158 191 218 227 98 107 128 120 138 187 198 207 260 235 212 213 166 148 155 174 172 161 163 164 165 166 170 174 179 178 174 171 170 178 181 180 183 183 181 182 180 179
80 105 145 177 181 118 79 12 60 130 169 177 199 188 217 215 190 184 156 145 147 158 167 172 171 169 166 167 170 174 176 171 165 162 167 173 170 168 170 175 175 165 164 169
52 96 75 24 33 51 31 19 30 50 95 137 139 147 208 119 98 105 123 134 154 164 165 169 165 166 171 174 175 177 177 173 161 159 164 163 158 158 161 164 158 148 147 146
47 83 80 345 345 39 4 346 71 62 40 125 142 193 134 88 85 103 100 101 117 129 140 152 164 167 172 176 173 174 176 166 160 160 161 159 154 151 152 154 144 146 149 148
117 91 111 102 55 186 246 355 84 87 57 66 101 113 125 127 102 76 78 82 69 57 61 104 145 157 159 160 159 161 161 156 156 155 154 154 153 152 151 144 148 153 148 151
129 131 111 117 153 245 319 352 38 101 52 39 89 91 93 112 74 42 40 61 65 58 69 93 137 141 140 148 153 147 146 145 145 150 155 159 159 156 154 154 158 155 144 142
63 96 113 119 143 202 256 318 335 104 98 17 81 104 113 101 91 18 20 42 46 44 51 76 98 104 117 130 138 137 139 139 147 153 152 147 148 146 146 147 145 139 136 141
35 50 101 140 166 234 308 321 24 113 195 241 113 114 104 101 144 127 63 47 49 49 52 69 85 91 103 119 124 128 131 142 148 132 121 117 125 134 137 134 128 121 119 117
140 118 134 130 152 233 326 30 89 177 173 120 99 97 98 104 102 90 73 59 54 57 62 70 81 77 73 92 113 113 114 122 114 109 105 102 100 109 112 109 106 105 111 109
127 170 166 168 183 232 19 85 79 112 108 109 114 117 118 110 105 91 78 72 68 68 69 71 81 75 65 67 89 96 94 95 100 99 95 91 88 87 93 103 104 97 98 105
336 65 104 84 48 42 61 74 58 71 85 90 109 117 120 118 109 97 88 84 78 72 71 71 76 76 69 65 72 78 82 92 98 99 95 89 87 79 72 76 84 94 97 106
259 77 98 101 106 56 43 53 67 72 73 77 86 93 106 114 108 101 97 92 86 79 72 73 75 76 72 69 68 66 71 85 90 90 89 88 87 88 79 69 60 73 66 94
276 160 158 194 195 140 75 47 80 84 77 84 93 85 85 103 106 101 96 90 88 84 79 78 75 73 69 70 66 59 63 79 89 88 86 89 95 95 96 93 74 55 66 71
Height
1473 1480 1485 1482 1480 1482 1483 1486 1486 1474 1461 1463 1466 1467 1465 1464 1465 1467 1469 1470 1472 1475 1479 1482 1485 1487 1490 1492 1495 1497 1500 1504 1508 1512 1515 1518 1522 1525 1529 1532 1535 1538 1540 1543
1477 1480 1472 1472 1473 1475 1479 1484 1482 1471 1460 1462 1467 1468 1466 1464 1465 1465 1467 1469 1470 1473 1477 1480 1482 1484 1487 1488 1491 1495 1498 1501 1505 1509 1512 1516 1520 1523 1526 1530 1533 1535 1538 1540
1478 1470 1465 1469 1472 1475 1476 1479 1476 1473 1464 1462 1469 1477 1472 1467 1465 1466 1467 1468 1469 1470 1473 1476 1479 1481 1484 1486 1488 1491 1494 1498 1502 1506 1510 1514 1518 1521 1524 1526 1530 1532 1535 1538
1470 1463 1464 1467 1468 1469 1477 1464 1464 1465 1473 1483 1475 1495 1480 1472 1468 1466 1466 1466 1467 1468 1471 1474 1476 1479 1482 1484 1487 1489 1493 1496 1500 1503 1506 1509 1512 1515 1518 1522 1526 1530 1533 1535
1466 1458 1461 1464 1461 1460 1464 1456 1459 1462 1471 1483 1481 1492 1488 1475 1473 1468 1465 1465 1466 1466 1468 1472 1474 1477 1481 1484 1486 1488 1491 1494 1497 1500 1503 1506 1509 1512 1516 1520 1523 1527 1530 1532
1457 1452 1453 1453 1450 1451 1452 1456 1462 1470 1482 1498 1489 1491 1493 1481 1473 1467 1463 1464 1465 1467 1469 1471 1474 1477 1480 1483 1485 1487 1489 1492 1494 1496 1500 1503 1506 1509 1513 1516 1520 1523 1526 1529
1461 1452 1446 1445 1451 1449 1453 1474 1496 1498 1507 1504 1487 1489 1489 1471 1465 1464 1462 1463 1465 1466 1468 1470 1473 1475 1478 1481 1483 1485 1487 1489 1491 1493 1496 1499 1502 1506 1509 1512 1516 1520 1523 1526
1471 1467 1446 1440 1446 1453 1455 1469 1496 1508 1510 1503 1489 1492 1480 1464 1460 1460 1460 1461 1463 1465 1467 1469 1471 1473 1476 1479 1482 1483 1485 1487 1489 1491 1493 1496 1499 1503 1506 1510 1513 1516 1520 1523
1465 1462 1439 1434 1433 1441 1453 1462 1465 1485 1493 1502 1498 1486 1474 1463 1460 1459 1460 1461 1463 1465 1466 1468 1470 1473 1475 1478 1480 1481 1483 1484 1486 1488 1490 1493 1496 1500 1503 1507 1510 1514 1517 1521
1449 1457 1442 1433 1432 1435 1441 1450 1469 1484 1500 1507 1498 1490 1485 1469 1464 1459 1459 1460 1463 1464 1465 1468 1470 1472 1474 1477 1478 1480 1481 1482 1484 1486 1487 1490 1493 1497 1500 1504 1507 1510 1514 1518
1441 1455 1449 1441 1443 1447 1446 1453 1463 1478 1485 1501 1505 1493 1465 1463 1460 1459 1458 1460 1462 1462 1464 1466 1468 1471 1474 1476 1477 1479 1480 1481 1482 1484 1486 1488 1491 1494 1498 1501 1504 1508 1511 1515
1436 1451 1459 1449 1438 1433 1439 1448 1460 1478 1483 1487 1495 1489 1456 1457 1457 1457 1457 1459 1460 1460 1463 1465 1467 1470 1472 1474 1476 1477 1478 1480 1481 1482 1484 1486 1489 1492 1495 1498 1502 1505 1509 1512
1434 1451 1466 1463 1455 1442 1443 1445 1451 1462 1475 1484 1491 1483 1456 1457 1457 1457 1457 1457 1458 1459 1461 1464 1466 1469 1471 1473 1475 1477 1478 1479 1480 1481 1483 1485 1487 1490 1493 1496 1499 1503 1506 1509
1428 1447 1459 1468 1462 1450 1448 1446 1448 1459 1475 1479 1476 1471 1462 1458 1456 1455 1455 1455 1457 1459 1460 1462 1465 1467 1470 1472 1474 1476 1477 1478 1480 1481 1482 1483 1485 1488 1491 1495 1498 1500 1503 1506
1430 1447 1446 1446 1442 1441 1444 1445 1445 1451 1458 1467 1465 1464 1460 1456 1455 1455 1455 1455 1457 1458 1459 1461 1463 1465 1468 1471 1473 1475 1476 1477 1479 1480 1481 1483 1485 1488 1491 1494 1496 1498 1501 1503
1437 1445 1446 1448 1441 1441 1445 1444 1443 1446 1449 1454 1456 1461 1455 1454 1454 1454 1455 1456 1456 1456 1458 1459 1462 1465 1467 1469 1472 1474 1475 1476 1478 1479 1481 1483 1485 1488 1490 1492 1494 1497 1499 1501
1443 1448 1456 1460 1448 1447 1458 1450 1448 1451 1450 1452 1460 1459 1455 1456 1455 1455 1455 1456 1456 1456 1457 1459 1461 1464 1466 1468 1470 1472 1474 1476 1477 1479 1481 1483 1485 1487 1489 1491 1493 1495 1497 1500
1444 1451 1460 1463 1459 1469 1461 1446 1445 1450 1453 1451 1453 1454 1454 1455 1457 1457 1457 1457 1457 1457 1457 1459 1461 1463 1465 1468 1470 1471 1473 1475 1477 1479 1481 1483 1485 1486 1488 1490 1492 1494 1496 1498
1439 1448 1460 1469 1470 1464 1455 1449 1448 1453 1461 1456 1454 1455 1456 1457 1457 1460 1460 1459 1459 1459 1459 1459 1461 1463 1464 1467 1469 1471 1473 1475 1477 1479 1480 1482 1484 1486 1488 1490 1492 1494 1496 1497
1441 1446 1458 1466 1469 1472 1461 1449 1445 1449 1465 1458 1456 1457 1457 1457 1463 1464 1462 1460 1459 1460 1460 1460 1461 1462 1463 1466 1468 1470 1472 1474 1476 1478 1480 1482 1484 1486 1488 1489 1492 1493 1495 1497
1453 1455 1460 1465 1467 1464 1455 1448 1446 1462 1466 1459 1458 1457 1457 1458 1461 1463 1461 1460 1459 1460 1460 1460 1461 1462 1463 1465 1467 1468 1471 1473 1476 1478 1480 1482 1484 1485 1487 1489 1491 1493 1495 1497
1458 1461 1463 1465 1469 1469 1454 1451 1456 1459 1456 1457 1457 1457 1457 1458 1460 1461 1461 1461 1460 1460 1460 1461 1461 1462 1464 1465 1466 1467 1470 1474 1476 1478 1480 1481 1483 1485 1487 1489 1491 1493 1494 1496
1457 1458 1459 1461 1464 1458 1454 1453 1455 1455 1455 1456 1457 1457 1457 1458 1460 1461 1461 1461 1462 1462 1462 1462 1463 1464 1465 1467 1468 1469 1472 1474 1476 1478 1480 1482 1484 1486 1487 1489 1490 1492 1494 1495
1455 1453 1456 1459 1458 1456 1456 1455 1456 1456 1456 1456 1457 1457 1458 1458 1460 1461 1462 1463 1464 1464 1464 1464 1465 1466 1467 1469 1470 1471 1473 1475 1476 1478 1480 1483 1484 1486 1488 1490 1491 1492 1494 1495
1454 1454 1456 1458 1458 1457 1456 1456 1457 1457 1457 1457 1458 1458 1458 1459 1461 1462 1464 1465 1466 1467 1467 1468 1468 1469 1470 1471 1472 1474 1476 1477 1478 1480 1482 1484 1486 1488 1489 1490 1492 1493 1495 1496
1453 1455 1457 1458 1456 1458 1459 1459 1459 1458 1458 1458 1459 1460 1461 1461 1462 1464 1466 1468 1469 1470 1471 1471 1472 1473 1474 1475 1476 1478 1479 1480 1481 1482 1485 1486 1488 1490 1491 1492 1494 1495 1497 1498